When you browse on this site, cookies collect data to enhance your experience and personalize the content and advertising you see.
Visit our Privacy Policy to learn more. By continuing to use the site, you agree to this use of cookies and data.
  • In Lithuania
  • List of Countries
  • For 7 days
  • Water Temperature
  • Satellite Maps
  • Weather Map
  • Weather Widgets
  • user-avatar
    Login

    Hourly Weather Kipungo

    Today, 10 December, Monday

    Time Temperature Precipitation Wind Pressure Humidity
    00:00 +19°C° 0 mm 2 mps 653 mmHg 72%
    01:00 +19°C° 0 mm 2 mps 653 mmHg 77%
    02:00 +18°C° 0 mm 2 mps 653 mmHg 80%
    03:00 +17°C° 0 mm 2 mps 653 mmHg 83%
    04:00 +18°C° 0 mm 1 mps 653 mmHg 85%
    05:00 +19°C° 0 mm 1 mps 654 mmHg 79%
    06:00 +20°C° 0 mm 1 mps 654 mmHg 72%
    07:00 +21°C° 0 mm 1 mps 655 mmHg 65%
    08:00 +25°C° 0 mm 1 mps 656 mmHg 52%
    09:00 +29°C° 0 mm 1 mps 657 mmHg 38%
    10:00 +32°C° 0 mm 1 mps 658 mmHg 25%
    11:00 +34°C° 0 mm 1 mps 657 mmHg 22%
    12:00 +35°C° 0 mm 1 mps 657 mmHg 19%
    13:00 +38°C° 0 mm 2 mps 657 mmHg 16%
    14:00 +37°C° 0 mm 2 mps 656 mmHg 17%
    15:00 +36°C° 0 mm 2 mps 655 mmHg 17%
    16:00 +35°C° 0 mm 3 mps 654 mmHg 17%
    17:00 +33°C° 0 mm 3 mps 654 mmHg 25%
    18:00 +29°C° 0 mm 4 mps 654 mmHg 32%
    19:00 +27°C° 0 mm 4 mps 654 mmHg 40%
    20:00 +25°C° 0 mm 4 mps 654 mmHg 47%
    21:00 +23°C° 0 mm 4 mps 655 mmHg 55%
    22:00 +22°C° 0 mm 3 mps 655 mmHg 62%
    23:00 +21°C° 0 mm 3 mps 655 mmHg 65%

    Tomorrow, 11 December, Tuesday

    Time Temperature Precipitation Wind Pressure Humidity
    00:00 +20°C° 0 mm 3 mps 655 mmHg 67%
    01:00 +19°C° 0 mm 2 mps 654 mmHg 70%
    02:00 +19°C° 0 mm 2 mps 654 mmHg 71%
    03:00 +18°C° 0 mm 2 mps 654 mmHg 72%
    04:00 +18°C° 0 mm 2 mps 654 mmHg 73%
    05:00 +19°C° 0 mm 2 mps 654 mmHg 68%
    06:00 +20°C° 0 mm 2 mps 655 mmHg 62%
    07:00 +21°C° 0 mm 2 mps 655 mmHg 57%
    08:00 +25°C° 0 mm 2 mps 656 mmHg 46%
    09:00 +29°C° 0 mm 2 mps 657 mmHg 36%
    10:00 +32°C° 0 mm 1 mps 658 mmHg 25%
    11:00 +34°C° 0 mm 1 mps 658 mmHg 22%
    12:00 +36°C° 0 mm 1 mps 657 mmHg 19%
    13:00 +38°C° 0 mm 2 mps 657 mmHg 15%
    14:00 +38°C° 0 mm 2 mps 656 mmHg 15%
    15:00 +37°C° 0 mm 2 mps 655 mmHg 15%
    16:00 +36°C° 0 mm 2 mps 654 mmHg 15%
    17:00 +34°C° 0 mm 3 mps 654 mmHg 22%
    18:00 +30°C° 0 mm 3 mps 654 mmHg 28%
    19:00 +27°C° 0 mm 4 mps 654 mmHg 35%
    20:00 +26°C° 0 mm 4 mps 655 mmHg 44%
    21:00 +24°C° 0 mm 3 mps 655 mmHg 53%
    22:00 +21°C° 0 mm 3 mps 655 mmHg 63%
    23:00 +20°C° 0 mm 3 mps 655 mmHg 67%

    Day after tomorrow, 12 December, Wednesday

    Time Temperature Precipitation Wind Pressure Humidity
    00:00 +20°C° 0 mm 3 mps 654 mmHg 71%
    01:00 +19°C° 0 mm 3 mps 654 mmHg 75%
    02:00 +18°C° 0 mm 2 mps 653 mmHg 78%
    03:00 +18°C° 0 mm 1 mps 653 mmHg 80%
    04:00 +18°C° 0 mm 1 mps 653 mmHg 82%
    05:00 +19°C° 0 mm 1 mps 654 mmHg 75%
    06:00 +20°C° 0 mm 1 mps 654 mmHg 69%
    07:00 +22°C° 0 mm 1 mps 655 mmHg 62%
    08:00 +26°C° 0 mm 1 mps 656 mmHg 48%
    09:00 +30°C° 0 mm 1 mps 657 mmHg 35%
    10:00 +34°C° 0 mm 1 mps 658 mmHg 21%
    11:00 +35°C° 0 mm 1 mps 657 mmHg 18%
    12:00 +37°C° 0 mm 1 mps 657 mmHg 15%
    13:00 +39°C° 0 mm 2 mps 656 mmHg 12%
    14:00 +39°C° 0 mm 1 mps 656 mmHg 12%
    15:00 +37°C° 0 mm 1 mps 655 mmHg 11%
    16:00 +37°C° 0 mm 1 mps 654 mmHg 11%
    17:00 +35°C° 0 mm 2 mps 654 mmHg 15%
    18:00 +31°C° 0 mm 2 mps 654 mmHg 18%
    19:00 +29°C° 0 mm 3 mps 654 mmHg 22%
    20:00 +27°C° 0 mm 3 mps 654 mmHg 30%
    21:00 +25°C° 0 mm 3 mps 654 mmHg 39%
    22:00 +22°C° 0 mm 3 mps 654 mmHg 47%
    23:00 +21°C° 0 mm 3 mps 654 mmHg 52%

    13 December, Thursday

    Time Temperature Precipitation Wind Pressure Humidity
    00:00 +21°C° 0 mm 3 mps 654 mmHg 57%
    01:00 +20°C° 0 mm 2 mps 653 mmHg 61%
    02:00 +19°C° 0 mm 2 mps 653 mmHg 64%
    03:00 +19°C° 0 mm 1 mps 653 mmHg 67%
    04:00 +18°C° 0 mm 1 mps 653 mmHg 69%
    05:00 +20°C° 0 mm 1 mps 654 mmHg 63%
    06:00 +21°C° 0 mm 1 mps 655 mmHg 57%
    07:00 +23°C° 0 mm 1 mps 656 mmHg 50%
    08:00 +26°C° 0 mm 1 mps 656 mmHg 38%
    09:00 +30°C° 0 mm 2 mps 657 mmHg 26%
    10:00 +35°C° 0 mm 3 mps 657 mmHg 13%
    11:00 +36°C° 0 mm 3 mps 657 mmHg 12%
    12:00 +38°C° 0 mm 3 mps 656 mmHg 10%
    13:00 +39°C° 0 mm 3 mps 656 mmHg 9%
    14:00 +39°C° 0 mm 3 mps 655 mmHg 9%
    15:00 +39°C° 0 mm 3 mps 655 mmHg 10%
    16:00 +39°C° 0 mm 3 mps 654 mmHg 10%
    17:00 +36°C° 0 mm 3 mps 654 mmHg 15%
    18:00 +31°C° 0 mm 3 mps 654 mmHg 21%
    19:00 +28°C° 0 mm 3 mps 654 mmHg 26%
    20:00 +27°C° 0 mm 3 mps 654 mmHg 32%
    21:00 +25°C° 0 mm 3 mps 654 mmHg 38%
    22:00 +22°C° 0 mm 3 mps 654 mmHg 45%
    23:00 +22°C° 0 mm 3 mps 654 mmHg 47%

    14 December, Friday

    Time Temperature Precipitation Wind Pressure Humidity
    00:00 +21°C° 0 mm 3 mps 654 mmHg 49%
    01:00 +21°C° 0 mm 2 mps 653 mmHg 51%
    02:00 +20°C° 0 mm 2 mps 653 mmHg 51%
    03:00 +20°C° 0 mm 2 mps 653 mmHg 52%
    04:00 +19°C° 0 mm 2 mps 653 mmHg 53%
    05:00 +20°C° 0 mm 2 mps 654 mmHg 49%
    06:00 +22°C° 0 mm 1 mps 654 mmHg 45%
    07:00 +23°C° 0 mm 1 mps 655 mmHg 41%
    08:00 +26°C° 0 mm 1 mps 656 mmHg 33%
    09:00 +30°C° 0 mm 2 mps 657 mmHg 25%
    10:00 +34°C° 0 mm 2 mps 657 mmHg 17%
    11:00 +35°C° 0 mm 3 mps 656 mmHg 18%
    12:00 +36°C° 0 mm 3 mps 656 mmHg 18%
    13:00 +37°C° 0 mm 3 mps 655 mmHg 19%
    14:00 +36°C° 0 mm 3 mps 654 mmHg 20%
    15:00 +36°C° 0 mm 2 mps 654 mmHg 20%
    16:00 +36°C° 0 mm 2 mps 653 mmHg 21%
    17:00 +34°C° 0 mm 2 mps 654 mmHg 23%
    18:00 +31°C° 0 mm 2 mps 654 mmHg 25%
    19:00 +29°C° 0 mm 3 mps 654 mmHg 27%
    20:00 +27°C° 0 mm 3 mps 654 mmHg 34%
    21:00 +25°C° 0 mm 3 mps 654 mmHg 40%
    22:00 +24°C° 0 mm 3 mps 654 mmHg 47%
    23:00 +23°C° 0 mm 2 mps 654 mmHg 51%

    15 December, Saturday

    Time Temperature Precipitation Wind Pressure Humidity
    00:00 +21°C° 0 mm 2 mps 653 mmHg 55%
    01:00 +20°C° 0 mm 2 mps 653 mmHg 59%
    02:00 +20°C° 0 mm 2 mps 653 mmHg 58%
    03:00 +20°C° 0 mm 2 mps 653 mmHg 57%
    04:00 +20°C° 0 mm 2 mps 653 mmHg 57%
    05:00 +21°C° 0 mm 2 mps 653 mmHg 53%
    06:00 +23°C° 0 mm 1 mps 654 mmHg 50%
    07:00 +23°C° 0 mm 1 mps 655 mmHg 46%
    08:00 +28°C° 0 mm 1 mps 655 mmHg 38%
    09:00 +32°C° 0 mm 1 mps 656 mmHg 29%
    10:00 +36°C° 0 mm 1 mps 657 mmHg 20%
    11:00 +37°C° 0 mm 1 mps 657 mmHg 19%
    12:00 +40°C° 0 mm 1 mps 656 mmHg 17%
    13:00 +41°C° 0 mm 1 mps 656 mmHg 15%
    14:00 +39°C° 0 mm 2 mps 655 mmHg 17%
    15:00 +38°C° 0 mm 2 mps 654 mmHg 18%
    16:00 +36°C° 0 mm 2 mps 653 mmHg 20%
    17:00 +34°C° 0 mm 2 mps 654 mmHg 24%
    18:00 +31°C° 0 mm 3 mps 654 mmHg 28%
    19:00 +29°C° 0 mm 4 mps 654 mmHg 32%
    20:00 +27°C° 0 mm 3 mps 654 mmHg 38%
    21:00 +25°C° 0 mm 3 mps 654 mmHg 44%
    22:00 +24°C° 0 mm 3 mps 654 mmHg 49%
    23:00 +22°C° 0 mm 3 mps 654 mmHg 52%
    Show more